CW0621 Weather Reports


Display with metric or nautical units.
time (UTC)temp
F
wind
direction
speed
MPH
gust
MPH
rain 1hr
in
rain 24hr
in
rain mn
in
humidity
%
barometer
mb
20260831111601 67 143 0.0 0.0 0.00 0.00 0.00 96 1016.0
20260831110010 67 143 0.0 0.0 0.00 0.00 0.00 96 1016.0
20260831104552 67 143 0.0 0.0 0.00 0.00 0.00 95 1015.9
20260831103102 67 143 0.0 0.0 0.00 0.00 0.00 95 1016.0
20260831101533 67 143 0.0 0.0 0.00 0.00 0.00 95 1015.8
20260831100103 68 143 0.0 0.0 0.00 0.00 0.00 95 1015.8
20260831094526 68 143 0.0 0.0 0.00 0.00 0.00 95 1015.8
20260831093054 68 143 0.0 0.0 0.00 0.00 0.00 95 1015.8
20260831091521 68 143 0.0 0.0 0.00 0.00 0.00 95 1015.8
20260831090049 68 143 0.0 0.0 0.00 0.00 0.00 95 1015.8
20260831084516 68 143 0.0 0.0 0.00 0.00 0.00 95 1015.8
20260831083048 68 143 0.0 0.0 0.00 0.00 0.00 95 1015.7
20260831081513 68 143 0.0 0.0 0.00 0.00 0.00 95 1015.6
20260831080037 68 143 0.0 0.0 0.00 0.00 0.00 95 1015.5
20260831074503 69 143 0.0 0.0 0.00 0.00 0.00 95 1015.4
20260831073030 69 143 0.0 0.0 0.00 0.00 0.00 95 1015.5
20260831071557 69 143 0.0 0.0 0.00 0.00 0.00 95 1015.7
20260831070022 69 143 0.0 0.0 0.00 0.00 0.00 95 1016.0
20260831064548 69 264 0.0 0.0 0.00 0.00 0.00 94 1016.2
20260831063015 69 264 0.0 0.0 0.00 0.00 0.00 94 1016.4
20260831061549 69 264 0.0 0.0 0.00 0.00 0.00 93 1016.4
20260831060009 70 264 0.0 0.0 0.00 0.00 0.00 93 1016.6
20260831054538 70 264 0.0 0.0 0.00 0.00 0.00 92 1016.8
20260831053006 70 269 0.0 0.0 0.00 0.00 0.00 92 1016.9
20260831051528 70 261 0.0 0.0 0.00 0.00 0.00 92 1016.6
20260831050058 70 261 0.0 0.0 0.00 0.00 0.00 92 1016.4
20260831044525 69 254 0.0 0.0 0.00 0.00 0.00 93 1016.4
20260831043050 69 129 0.0 0.0 0.00 0.00 0.00 94 1016.6
20260831041516 69 257 0.0 0.0 0.00 0.00 0.00 94 1016.7
20260831040042 68 254 0.0 0.0 0.00 0.00 0.00 94 1016.7
20260831034506 68 254 0.0 0.0 0.00 0.00 0.00 94 1016.7
20260831033039 68 254 0.0 0.0 0.00 0.00 0.00 94 1016.8
20260831031504 68 254 0.0 0.0 0.00 0.00 0.00 94 1016.7
20260831030039 68 254 0.0 0.0 0.00 0.00 0.00 94 1016.7
20260831024507 68 254 0.0 0.0 0.00 0.00 0.00 93 1016.6
20260831023035 68 254 0.0 0.0 0.00 0.00 0.00 93 1016.6
20260831021505 68 254 0.0 0.0 0.00 0.00 0.00 92 1016.5
20260831020032 69 254 0.0 0.0 0.00 0.00 0.00 91 1016.4
20260831014603 69 254 0.0 0.0 0.00 0.00 0.00 91 1016.3
20260831013021 69 254 0.0 0.0 0.00 0.00 0.00 89 1016.0
20260831011552 70 254 0.0 0.0 0.00 0.00 0.00 89 1016.1
20260831010019 70 254 0.0 0.0 0.00 0.00 0.00 88 1016.0
20260831004548 70 254 0.0 0.0 0.00 0.00 0.00 87 1015.7
20260831003015 71 254 0.0 0.0 0.00 0.00 0.00 86 1015.7
20260831001543 71 256 0.0 0.0 0.00 0.00 0.00 84 1015.9
20260831000008 72 126 0.0 0.0 0.00 0.00 0.00 83 1016.1
20260830234552 73 149 0.0 0.0 0.00 0.00 0.00 81 1015.8
20260830233007 74 224 0.0 0.0 0.00 0.00 0.00 81 1015.7
20260830231537 75 270 0.0 0.0 0.00 0.00 0.00 80 1016.1
20260830230008 75 226 0.0 0.0 0.00 0.00 0.00 80 1016.2
20260830224532 75 106 0.0 0.0 0.00 0.00 0.00 80 1016.2
20260830223103 76 92 0.0 0.0 0.00 0.00 0.00 80 1016.4
20260830221530 77 118 0.0 0.0 0.00 0.00 0.00 80 1016.4
20260830220056 77 89 0.0 0.0 0.00 0.00 0.00 78 1016.4
20260830214518 78 75 0.0 1.0 0.00 0.00 0.00 75 1016.6
20260830213047 78 239 0.0 1.0 0.00 0.00 0.00 74 1016.5
20260830211513 77 68 0.0 4.0 0.00 0.00 0.00 75 1016.7
20260830210049 78 77 0.0 1.0 0.00 0.00 0.00 73 1016.5
20260830204510 79 248 0.0 1.0 0.00 0.00 0.00 70 1015.9
20260830203048 79 273 0.0 2.0 0.00 0.00 0.00 69 1015.8
20260830201507 80 248 0.0 3.0 0.00 0.00 0.00 71 1016.1
20260830200034 80 260 0.0 3.0 0.00 0.00 0.00 74 1016.0
20260830194606 78 224 0.0 1.0 0.00 0.00 0.00 76 1016.1
20260830193024 76 250 0.0 0.0 0.00 0.00 0.00 83 1016.0
20260830191549 74 252 0.0 0.0 0.00 0.00 0.00 90 1015.9
20260830190017 73 249 0.0 1.0 0.00 0.00 0.00 94 1015.8
20260830184540 72 257 0.0 1.0 0.00 0.00 0.00 96 1016.0
20260830183002 70 230 0.0 0.0 0.00 0.00 0.00 96 1016.2
20260830181528 69 244 0.0 0.0 0.00 0.00 0.00 96 1016.1
20260830180055 69 254 0.0 0.0 0.00 0.00 0.00 96 1016.3
20260830174520 68 140 0.0 0.0 0.00 0.00 0.00 96 1016.5
20260830173107 68 269 0.0 0.0 0.00 0.00 0.00 97 1016.7
20260830171512 67 110 0.0 0.0 0.00 0.00 0.00 97 1016.8
20260830170036 67 102 0.0 0.0 0.00 0.00 0.00 96 1017.3
20260830164603 67 102 0.0 0.0 0.00 0.00 0.00 96 1018.1
20260830163035 67 102 0.0 0.0 0.00 0.00 0.00 96 1018.6
20260830161556 67 102 0.0 0.0 0.00 0.00 0.00 96 1018.7
20260830160021 66 102 0.0 0.0 0.00 0.00 0.00 96 1019.0
20260830154548 66 101 0.0 0.0 0.00 0.00 0.00 96 1019.6
20260830153016 66 101 0.0 0.0 0.00 0.00 0.00 96 1019.7
20260830151542 66 101 0.0 0.0 0.00 0.00 0.00 95 1019.7
20260830150008 66 101 0.0 0.0 0.00 0.00 0.00 94 1020.1
20260830144539 66 103 0.0 0.0 0.00 0.00 0.00 95 1019.8
20260830143102 66 103 0.0 0.0 0.00 0.00 0.00 95 1019.8
20260830141526 66 103 0.0 0.0 0.00 0.00 0.00 95 1019.7
20260830140053 65 103 0.0 0.0 0.00 0.00 0.00 95 1019.4
20260830134527 65 103 0.0 0.0 0.00 0.00 0.00 94 1019.1
20260830133044 65 103 0.0 0.0 0.00 0.00 0.00 94 1018.7
20260830131513 65 103 0.0 0.0 0.00 0.00 0.00 94 1018.3
20260830130035 65 103 0.0 0.0 0.00 0.00 0.00 94 1017.9
20260830124502 65 103 0.0 0.0 0.00 0.00 0.00 94 1017.8
20260830123032 65 103 0.0 0.0 0.00 0.00 0.00 94 1017.6
20260830121601 65 103 0.0 0.0 0.00 0.00 0.00 93 1017.1
20260830120031 65 103 0.0 0.0 0.00 0.00 0.00 93 1017.1
20260830114610 65 103 0.0 0.0 0.00 0.00 0.00 93 1016.9
20260830113020 65 103 0.0 0.0 0.00 0.00 0.00 93 1016.7